Location: Allen Generating Plant
(35.0740°N, 90.1490°W)
Time: 09:19:57
(UTC+00:00)

Explorer 11/Cluster Stage 4 - Pass Details

Date: 13 November 2024
Orbit: 464 x 1202 km, 28.8° (Epoch: 06 December)

Event Time Altitude Azimuth Distance (km) Brightness Sun altitude
Exits shadow 11:28:52 12° 240° (WSW) 1,781 8.0 -13.5°
Maximum altitude 11:32:24 33° 178° (S) 913 7.1 -12.8°
Drops below altitude 10° 11:35:51 10° 113° (ESE) 1,681 9.8 -12.1°
Sets 11:38:03 0° 103° (ESE) 2,513 11.4 -11.7°
